Weather in Korobets

Russia / Smolensk Oblast     54°31′05″N   33°28′55″E
temp.,
°C
wind,
m/s
gust,
m/s
humid.,
%
clouds,
%
prec.,
mm/h
press.,
hPa
HPBL,
m
28 september, tue
tue2800:00+6n3694100 0.0 1026136
03:00+8nne3892100 0.1 1026355
06:00+8nne489288 0.0 1027480
09:00+8ne4888100 0.0 1028582
12:00+8ene5782100 0.1 1029713
15:00+9ene456699 0.1 10301229
18:00+8ene3676100 0.0 1032553
21:00+7ene3881100 0.0 1033530
29 september, wed
wed2900:00+6ene2683100 0.0 1034282
03:00+3e23935 0.0 103641
06:00+1ene22935 0.0 103633
09:00+5e237744 0.0 1037236
12:00+9e235642 0.0 1036815
15:00+11e234959 0.0 10351013
18:00+8ne1164100 0.0 103510
21:00+6e2273100 0.0 103510
30 september, thu
thu3000:00+4ese1180100 0.0 103610
03:00+4e018382 0.0 103610
06:00+3ene118577 0.0 103610
09:00+6e1274100 0.0 1036134
12:00+11ese22596 0.0 1036707
15:00+12se22555 0.0 10351080
18:00+9se22725 0.0 103410
21:00+6se22842 0.0 103513
1 october, fri
fri100:00+5sse22895 0.0 103627
03:00+4s22912 0.0 103631
06:00+4s22930 0.0 103628
09:00+7s34805 0.0 1036187
12:00+12s34615 0.0 1035794
15:00+13ssw34555 0.0 10341104
18:00+9s337323 0.0 103326
21:00+7s338461 0.0 103438
2 october, sat
sat200:00+5s338655 0.0 103444
03:00+5s348947 0.0 103459
06:00+4s359098 0.0 103484
09:00+7s377741 0.0 1033208
12:00+12s46561 0.0 1032747
15:00+14s56510 0.0 10311119
18:00+9sse367283 0.0 1030105
21:00+7s388196 0.0 1031144